SWA1655 KDEN-KSMF

Flight info

Callsign SWA1655
Flight time 2h 26m
Altitude 38000
Route COORZ7 VOAXA DTA CRASY SLMMR5
Aircraft B737/M-SADE2E3GIJ4RWZ/LB1D1

Departure

Time 2026-05-05 01:19
Airport Denver International Airport (KDEN)

Arrival

Time 2026-05-05 03:46
Airport Sacramento International Airport (KSMF)
Time Latitude Longitude Altitude Speed Heading
2026-05-05 00:41 39.86361 -104.67097 5365 ft 0 kts 212°
2026-05-05 01:06 39.86362 -104.67097 5365 ft 1 kts 212°
2026-05-05 01:06 39.86383 -104.67080 5369 ft 4 kts 212°
2026-05-05 01:07 39.86406 -104.67062 5363 ft 4 kts 212°
2026-05-05 01:07 39.86421 -104.67049 5362 ft 0 kts 212°
2026-05-05 01:09 39.86418 -104.67056 5362 ft 1 kts 241°
2026-05-05 01:09 39.86417 -104.67065 5365 ft 1 kts 262°
2026-05-05 01:09 39.86417 -104.67074 5362 ft 1 kts 265°
2026-05-05 01:09 39.86417 -104.67084 5364 ft 3 kts 268°
2026-05-05 01:10 39.86416 -104.67148 5365 ft 12 kts 270°
2026-05-05 01:10 39.86417 -104.67274 5365 ft 16 kts 270°
2026-05-05 01:10 39.86418 -104.67429 5365 ft 19 kts 270°
2026-05-05 01:10 39.86418 -104.67604 5365 ft 19 kts 270°
2026-05-05 01:11 39.86419 -104.67775 5365 ft 19 kts 270°
2026-05-05 01:11 39.86420 -104.67921 5365 ft 4 kts 259°
2026-05-05 01:11 39.86407 -104.67948 5363 ft 3 kts 224°
2026-05-05 01:11 39.86386 -104.67960 5364 ft 3 kts 199°
2026-05-05 01:12 39.86379 -104.67986 5363 ft 3 kts 266°
2026-05-05 01:12 39.86383 -104.68026 5362 ft 5 kts 283°
2026-05-05 01:12 39.86395 -104.68084 5365 ft 8 kts 286°
2026-05-05 01:12 39.86414 -104.68161 5362 ft 10 kts 287°
2026-05-05 01:13 39.86424 -104.68259 5365 ft 12 kts 274°
2026-05-05 01:13 39.86426 -104.68300 5364 ft 1 kts 272°
2026-05-05 01:13 39.86427 -104.68324 5365 ft 6 kts 273°
2026-05-05 01:13 39.86395 -104.68391 5365 ft 14 kts 194°
2026-05-05 01:14 39.86295 -104.68390 5364 ft 14 kts 180°
2026-05-05 01:14 39.86199 -104.68390 5363 ft 13 kts 180°
2026-05-05 01:14 39.86107 -104.68391 5363 ft 13 kts 181°
2026-05-05 01:14 39.85998 -104.68392 5364 ft 20 kts 181°
2026-05-05 01:15 39.85834 -104.68394 5363 ft 25 kts 180°
2026-05-05 01:15 39.85668 -104.68396 5364 ft 23 kts 180°
2026-05-05 01:15 39.85511 -104.68398 5364 ft 22 kts 180°
2026-05-05 01:15 39.85357 -104.68401 5364 ft 22 kts 181°
2026-05-05 01:16 39.85221 -104.68411 5364 ft 14 kts 212°
2026-05-05 01:16 39.85203 -104.68529 5365 ft 14 kts 269°
2026-05-05 01:16 39.85203 -104.68697 5364 ft 24 kts 269°
2026-05-05 01:16 39.85198 -104.68944 5365 ft 28 kts 268°
2026-05-05 01:17 39.85197 -104.69188 5365 ft 26 kts 271°
2026-05-05 01:17 39.85201 -104.69413 5365 ft 20 kts 271°
2026-05-05 01:17 39.85202 -104.69501 5365 ft 5 kts 271°
2026-05-05 01:17 39.85203 -104.69563 5365 ft 12 kts 271°
2026-05-05 01:18 39.85212 -104.69655 5364 ft 5 kts 329°
2026-05-05 01:18 39.85254 -104.69655 5364 ft 11 kts
2026-05-05 01:18 39.85538 -104.69652 5368 ft 72 kts
2026-05-05 01:18 39.86231 -104.69645 5365 ft 126 kts
2026-05-05 01:19 39.87252 -104.69649 5422 ft 162 kts
2026-05-05 01:19 39.88452 -104.69599 5652 ft 189 kts
2026-05-05 01:19 39.89826 -104.69540 6067 ft 203 kts
2026-05-05 01:19 39.91210 -104.69762 6794 ft 200 kts 333°
2026-05-05 01:20 39.92196 -104.71141 7130 ft 228 kts 293°
2026-05-05 01:20 39.92245 -104.73298 7539 ft 256 kts 253°
2026-05-05 01:20 39.91280 -104.75260 8391 ft 259 kts 234°
2026-05-05 01:20 39.90234 -104.77161 9170 ft 266 kts 238°
2026-05-05 01:21 39.89177 -104.79264 9587 ft 290 kts 238°
2026-05-05 01:21 39.88100 -104.81593 10249 ft 298 kts 240°
2026-05-05 01:21 39.87087 -104.83917 11345 ft 292 kts 241°
2026-05-05 01:21 39.86129 -104.86168 12509 ft 284 kts 241°
2026-05-05 01:22 39.85180 -104.88414 13605 ft 284 kts 241°
2026-05-05 01:22 39.84408 -104.90786 14277 ft 293 kts 258°
2026-05-05 01:22 39.84280 -104.93447 15099 ft 295 kts 271°
2026-05-05 01:22 39.84367 -104.96110 16023 ft 295 kts 272°
2026-05-05 01:23 39.84458 -104.98791 16865 ft 298 kts 271°
2026-05-05 01:23 39.84540 -105.01497 17784 ft 301 kts 271°
2026-05-05 01:23 39.84615 -105.04229 18581 ft 303 kts 271°
2026-05-05 01:23 39.84683 -105.06987 19312 ft 306 kts 271°
2026-05-05 01:24 39.84749 -105.09767 20052 ft 309 kts 271°
2026-05-05 01:24 39.84815 -105.12569 20798 ft 311 kts 271°
2026-05-05 01:24 39.84881 -105.15399 21541 ft 314 kts 272°
2026-05-05 01:24 39.84947 -105.18257 22262 ft 318 kts 272°
2026-05-05 01:25 39.85014 -105.21151 22993 ft 321 kts 272°
2026-05-05 01:25 39.85080 -105.24064 23675 ft 324 kts 272°
2026-05-05 01:25 39.85145 -105.27004 24291 ft 326 kts 272°
2026-05-05 01:25 39.85211 -105.29963 24904 ft 328 kts 272°
2026-05-05 01:26 39.85279 -105.32950 25488 ft 331 kts 272°
2026-05-05 01:26 39.85346 -105.35952 26116 ft 333 kts 272°
2026-05-05 01:26 39.85413 -105.38971 26724 ft 335 kts 272°
2026-05-05 01:26 39.85479 -105.42007 27299 ft 337 kts 272°
2026-05-05 01:27 39.85544 -105.45069 27904 ft 339 kts 272°
2026-05-05 01:27 39.85608 -105.48152 28318 ft 347 kts 272°
2026-05-05 01:27 39.85666 -105.51369 28397 ft 362 kts 272°
2026-05-05 01:27 39.85723 -105.54662 28486 ft 376 kts 271°
2026-05-05 01:28 39.85783 -105.58114 28605 ft 388 kts 271°
2026-05-05 01:28 39.85852 -105.61658 28939 ft 394 kts 272°
2026-05-05 01:28 39.85926 -105.65225 29485 ft 394 kts 272°
2026-05-05 01:28 39.85999 -105.68791 29926 ft 397 kts 272°
2026-05-05 01:29 39.86051 -105.72380 30360 ft 398 kts 269°
2026-05-05 01:29 39.85886 -105.75926 30791 ft 399 kts 265°
2026-05-05 01:29 39.85573 -105.79512 31201 ft 400 kts 264°
2026-05-05 01:29 39.85213 -105.83090 31684 ft 397 kts 264°
2026-05-05 01:30 39.84856 -105.86615 32404 ft 388 kts 264°
2026-05-05 01:30 39.84522 -105.90029 33448 ft 371 kts 264°
2026-05-05 01:30 39.84216 -105.93280 34534 ft 351 kts 264°
2026-05-05 01:30 39.83935 -105.96357 35411 ft 336 kts 264°
2026-05-05 01:31 39.83667 -105.99359 35891 ft 332 kts 264°
2026-05-05 01:31 39.83405 -106.02352 36060 ft 334 kts 264°
2026-05-05 01:31 39.83140 -106.05362 36303 ft 335 kts 263°
2026-05-05 01:31 39.82875 -106.08349 36731 ft 330 kts 263°
2026-05-05 01:32 39.82612 -106.11306 37074 ft 328 kts 263°
2026-05-05 01:32 39.82351 -106.14210 37350 ft 328 kts 263°
2026-05-05 01:32 39.82096 -106.17155 37502 ft 329 kts 263°
2026-05-05 01:32 39.81830 -106.20119 37720 ft 328 kts 263°
2026-05-05 01:33 39.81562 -106.23066 37858 ft 330 kts 263°
2026-05-05 01:33 39.81293 -106.26025 37897 ft 328 kts 263°
2026-05-05 01:33 39.80767 -106.31920 37898 ft 326 kts 263°
2026-05-05 01:34 39.80233 -106.37739 37844 ft 323 kts 262°
2026-05-05 01:34 39.79701 -106.43514 37855 ft 324 kts 262°
2026-05-05 01:35 39.79164 -106.49367 37884 ft 329 kts 262°
2026-05-05 01:35 39.78643 -106.55273 37874 ft 329 kts 263°
2026-05-05 01:36 39.78307 -106.61185 37871 ft 327 kts 264°
2026-05-05 01:36 39.78002 -106.67049 37870 ft 327 kts 264°
2026-05-05 01:37 39.77683 -106.72952 37871 ft 328 kts 264°
2026-05-05 01:37 39.77352 -106.78840 37866 ft 328 kts 263°
2026-05-05 01:38 39.77015 -106.84721 37884 ft 327 kts 263°
2026-05-05 01:38 39.76680 -106.90493 37966 ft 328 kts 263°
2026-05-05 01:39 39.76332 -106.96422 37977 ft 329 kts 263°
2026-05-05 01:39 39.75981 -107.02348 37944 ft 329 kts 263°
2026-05-05 01:40 39.75629 -107.08229 37938 ft 329 kts 263°
2026-05-05 01:40 39.75271 -107.14160 37931 ft 329 kts 263°
2026-05-05 01:41 39.74918 -107.19981 37927 ft 328 kts 263°
2026-05-05 01:41 39.74554 -107.25905 37904 ft 330 kts 263°
2026-05-05 01:42 39.74187 -107.31850 37894 ft 330 kts 263°
2026-05-05 01:42 39.73816 -107.37793 37876 ft 330 kts 263°
2026-05-05 01:43 39.73440 -107.43745 37896 ft 331 kts 262°
2026-05-05 01:43 39.73060 -107.49735 37856 ft 333 kts 262°
2026-05-05 01:44 39.72687 -107.55570 37883 ft 335 kts 262°
2026-05-05 01:44 39.72304 -107.61544 37859 ft 336 kts 262°
2026-05-05 01:45 39.71915 -107.67533 37869 ft 333 kts 262°
2026-05-05 01:45 39.71538 -107.73294 37882 ft 332 kts 262°
2026-05-05 01:46 39.71140 -107.79277 37863 ft 332 kts 262°
2026-05-05 01:46 39.70942 -107.82263 37762 ft 332 kts 262°
2026-05-05 01:46 39.70743 -107.85247 37832 ft 334 kts 262°
2026-05-05 01:47 39.70337 -107.91310 37817 ft 339 kts 262°
2026-05-05 01:47 39.69924 -107.97429 37790 ft 341 kts 262°
2026-05-05 01:48 39.69508 -108.03561 37786 ft 341 kts 262°
2026-05-05 01:48 39.69091 -108.09640 37772 ft 340 kts 261°
2026-05-05 01:49 39.68667 -108.15726 37777 ft 337 kts 261°
2026-05-05 01:49 39.68246 -108.21795 37790 ft 338 kts 262°
2026-05-05 01:50 39.67821 -108.27877 37785 ft 339 kts 262°
2026-05-05 01:50 39.67390 -108.33978 37770 ft 340 kts 262°
2026-05-05 01:51 39.66955 -108.40078 37787 ft 340 kts 262°
2026-05-05 01:51 39.66515 -108.46207 37774 ft 342 kts 262°
2026-05-05 01:52 39.66144 -108.51324 37773 ft 343 kts 262°
2026-05-05 01:52 39.65623 -108.58503 37769 ft 343 kts 262°
2026-05-05 01:53 39.65171 -108.64648 37764 ft 342 kts 262°
2026-05-05 01:53 39.64790 -108.69803 37780 ft 342 kts 262°
2026-05-05 01:54 39.64335 -108.75927 37720 ft 338 kts 262°
2026-05-05 01:54 39.63882 -108.81976 37783 ft 340 kts 261°
2026-05-05 01:55 39.63414 -108.88145 37756 ft 345 kts 261°
2026-05-05 01:55 39.62944 -108.94362 37776 ft 348 kts 261°
2026-05-05 01:56 39.62466 -109.00619 37753 ft 349 kts 262°
2026-05-05 01:56 39.61984 -109.06888 37765 ft 349 kts 261°
2026-05-05 01:57 39.61496 -109.13150 37763 ft 349 kts 261°
2026-05-05 01:57 39.61004 -109.19427 37793 ft 351 kts 261°
2026-05-05 01:58 39.60507 -109.25735 37776 ft 351 kts 261°
2026-05-05 01:58 39.60009 -109.32020 37781 ft 349 kts 261°
2026-05-05 01:59 39.59512 -109.38239 37782 ft 348 kts 261°
2026-05-05 01:59 39.59011 -109.44475 37796 ft 348 kts 261°
2026-05-05 02:00 39.58508 -109.50708 37774 ft 348 kts 261°
2026-05-05 02:00 39.57999 -109.56934 37812 ft 348 kts 260°
2026-05-05 02:01 39.57488 -109.63177 37814 ft 348 kts 260°
2026-05-05 02:01 39.56967 -109.69430 37802 ft 349 kts 260°
2026-05-05 02:02 39.56446 -109.75710 37802 ft 352 kts 260°
2026-05-05 02:02 39.55919 -109.82025 37787 ft 353 kts 260°
2026-05-05 02:03 39.55386 -109.88369 37799 ft 354 kts 260°
2026-05-05 02:03 39.54852 -109.94699 37811 ft 353 kts 260°
2026-05-05 02:04 39.54314 -110.00992 37808 ft 355 kts 260°
2026-05-05 02:04 39.53768 -110.07358 37753 ft 354 kts 260°
2026-05-05 02:05 39.53218 -110.13684 37807 ft 354 kts 259°
2026-05-05 02:05 39.52662 -110.20046 37777 ft 356 kts 259°
2026-05-05 02:06 39.52107 -110.26419 37777 ft 358 kts 259°
2026-05-05 02:06 39.51537 -110.32837 37750 ft 358 kts 259°
2026-05-05 02:07 39.50971 -110.39258 37768 ft 358 kts 259°
2026-05-05 02:07 39.50404 -110.45625 37752 ft 354 kts 259°
2026-05-05 02:08 39.49836 -110.51939 37784 ft 360 kts 259°
2026-05-05 02:08 39.49244 -110.58455 37780 ft 369 kts 259°
2026-05-05 02:09 39.48642 -110.65074 37894 ft 371 kts 259°
2026-05-05 02:09 39.48035 -110.71722 37898 ft 372 kts 259°
2026-05-05 02:10 39.47424 -110.78363 37900 ft 372 kts 259°
2026-05-05 02:10 39.46809 -110.85010 37883 ft 372 kts 259°
2026-05-05 02:11 39.46189 -110.91653 37875 ft 372 kts 259°
2026-05-05 02:11 39.45564 -110.98311 37858 ft 373 kts 259°
2026-05-05 02:12 39.44625 -111.08265 37831 ft 370 kts 259°
2026-05-05 02:13 39.43994 -111.14848 37829 ft 371 kts 259°
2026-05-05 02:13 39.43359 -111.21467 37821 ft 370 kts 259°
2026-05-05 02:14 39.42716 -111.28119 37843 ft 374 kts 258°
2026-05-05 02:14 39.42068 -111.34808 37845 ft 376 kts 259°
2026-05-05 02:15 39.41410 -111.41539 37835 ft 378 kts 259°
2026-05-05 02:15 39.40746 -111.48296 37829 ft 378 kts 259°
2026-05-05 02:16 39.40079 -111.55038 37822 ft 379 kts 258°
2026-05-05 02:16 39.39408 -111.61785 37813 ft 379 kts 258°
2026-05-05 02:17 39.38737 -111.68496 37816 ft 378 kts 258°
2026-05-05 02:17 39.38066 -111.75218 37824 ft 376 kts 258°
2026-05-05 02:18 39.37387 -111.81894 37781 ft 376 kts 258°
2026-05-05 02:18 39.36700 -111.88609 37803 ft 378 kts 258°
2026-05-05 02:19 39.36006 -111.95379 37785 ft 380 kts 258°
2026-05-05 02:19 39.35307 -112.02164 37785 ft 381 kts 258°
2026-05-05 02:20 39.34602 -112.08964 37769 ft 382 kts 258°
2026-05-05 02:20 39.33893 -112.15770 37770 ft 383 kts 258°
2026-05-05 02:21 39.33177 -112.22593 37747 ft 383 kts 258°
2026-05-05 02:21 39.32458 -112.29422 37740 ft 385 kts 257°
2026-05-05 02:22 39.31734 -112.36236 37741 ft 387 kts 258°
2026-05-05 02:22 39.31001 -112.43121 37745 ft 388 kts 258°
2026-05-05 02:23 39.30260 -112.50034 37733 ft 390 kts 258°
2026-05-05 02:23 39.29527 -112.56983 37734 ft 391 kts 258°
2026-05-05 02:24 39.28802 -112.63940 37725 ft 391 kts 258°
2026-05-05 02:24 39.28073 -112.70903 37730 ft 391 kts 258°
2026-05-05 02:25 39.27335 -112.77883 37735 ft 393 kts 258°
2026-05-05 02:25 39.26590 -112.84897 37736 ft 396 kts 258°
2026-05-05 02:26 39.25835 -112.91952 37729 ft 398 kts 258°
2026-05-05 02:26 39.25072 -112.99048 37729 ft 400 kts 258°
2026-05-05 02:27 39.24302 -113.06165 37727 ft 401 kts 258°
2026-05-05 02:27 39.23527 -113.13285 37745 ft 402 kts 258°
2026-05-05 02:28 39.22745 -113.20426 37735 ft 403 kts 258°
2026-05-05 02:28 39.21956 -113.27589 37742 ft 403 kts 258°
2026-05-05 02:29 39.21162 -113.34758 37733 ft 406 kts 258°
2026-05-05 02:29 39.20351 -113.42025 37755 ft 412 kts 258°
2026-05-05 02:30 39.19525 -113.49390 37755 ft 417 kts 258°
2026-05-05 02:30 39.18691 -113.56797 37733 ft 416 kts 258°
2026-05-05 02:31 39.17871 -113.64061 37729 ft 410 kts 258°
2026-05-05 02:31 39.17043 -113.71322 37747 ft 410 kts 258°
2026-05-05 02:32 39.16209 -113.78589 37746 ft 411 kts 258°
2026-05-05 02:32 39.15376 -113.85804 37754 ft 413 kts 258°
2026-05-05 02:33 39.14539 -113.93018 37762 ft 414 kts 258°
2026-05-05 02:33 39.13682 -114.00369 37751 ft 415 kts 258°
2026-05-05 02:34 39.12821 -114.07718 37773 ft 415 kts 258°
2026-05-05 02:34 39.11950 -114.15102 37774 ft 418 kts 258°
2026-05-05 02:35 39.11070 -114.22518 37770 ft 419 kts 258°
2026-05-05 02:35 39.10191 -114.29895 37774 ft 419 kts 258°
2026-05-05 02:36 39.09302 -114.37314 37776 ft 419 kts 258°
2026-05-05 02:36 39.08407 -114.44733 37783 ft 420 kts 258°
2026-05-05 02:37 39.07506 -114.52170 37792 ft 420 kts 258°
2026-05-05 02:37 39.06600 -114.59603 37804 ft 421 kts 257°
2026-05-05 02:38 39.05688 -114.67039 37823 ft 421 kts 257°
2026-05-05 02:38 39.04770 -114.74489 37830 ft 421 kts 257°
2026-05-05 02:39 39.03849 -114.81930 37838 ft 421 kts 257°
2026-05-05 02:39 39.02922 -114.89371 37823 ft 421 kts 257°
2026-05-05 02:40 39.01990 -114.96810 37820 ft 421 kts 257°
2026-05-05 02:40 39.01054 -115.04246 37798 ft 422 kts 257°
2026-05-05 02:41 39.00110 -115.11703 37783 ft 422 kts 257°
2026-05-05 02:41 38.99884 -115.19291 37797 ft 428 kts 267°
2026-05-05 02:42 39.00085 -115.26945 37784 ft 428 kts 267°
2026-05-05 02:42 39.00270 -115.34592 37802 ft 428 kts 267°
2026-05-05 02:43 39.00429 -115.42256 37790 ft 429 kts 267°
2026-05-05 02:43 39.00571 -115.49873 37789 ft 429 kts 267°
2026-05-05 02:44 39.00706 -115.57543 37791 ft 430 kts 267°
2026-05-05 02:44 39.00838 -115.65222 37802 ft 430 kts 266°
2026-05-05 02:45 39.00964 -115.72908 37806 ft 430 kts 266°
2026-05-05 02:45 39.01086 -115.80595 37803 ft 430 kts 266°
2026-05-05 02:46 39.01203 -115.88292 37822 ft 430 kts 266°
2026-05-05 02:46 39.01314 -115.95988 37844 ft 431 kts 267°
2026-05-05 02:47 39.01420 -116.03724 37844 ft 433 kts 266°
2026-05-05 02:47 39.01523 -116.11467 37842 ft 433 kts 266°
2026-05-05 02:48 39.01604 -116.17912 37844 ft 434 kts 266°
2026-05-05 02:48 39.01697 -116.25668 37848 ft 434 kts 266°
2026-05-05 02:49 39.01785 -116.33436 37868 ft 435 kts 267°
2026-05-05 02:49 39.01868 -116.41219 37870 ft 436 kts 266°
2026-05-05 02:50 39.01946 -116.49009 37866 ft 435 kts 266°
2026-05-05 02:50 39.02019 -116.56799 37892 ft 436 kts 267°
2026-05-05 02:51 39.02086 -116.64603 37891 ft 437 kts 267°
2026-05-05 02:51 39.02148 -116.72447 37881 ft 440 kts 267°
2026-05-05 02:52 39.02205 -116.80330 37884 ft 442 kts 267°
2026-05-05 02:52 39.02258 -116.88191 37892 ft 443 kts 267°
2026-05-05 02:53 39.02305 -116.96127 37885 ft 445 kts 267°
2026-05-05 02:53 39.02348 -117.04087 37888 ft 445 kts 267°
2026-05-05 02:54 39.02385 -117.12053 37879 ft 446 kts 267°
2026-05-05 02:54 39.02416 -117.20028 37883 ft 447 kts 268°
2026-05-05 02:55 39.02442 -117.28034 37879 ft 449 kts 268°
2026-05-05 02:55 39.02462 -117.36087 37882 ft 451 kts 268°
2026-05-05 02:56 39.02478 -117.44152 37882 ft 451 kts 268°
2026-05-05 02:56 39.02487 -117.52242 37874 ft 454 kts 268°
2026-05-05 02:57 39.02491 -117.60378 37874 ft 457 kts 268°
2026-05-05 02:57 39.02490 -117.68561 37877 ft 458 kts 268°
2026-05-05 02:58 39.02482 -117.76759 37867 ft 459 kts 268°
2026-05-05 02:58 39.02469 -117.84975 37855 ft 460 kts 268°
2026-05-05 02:59 39.02451 -117.93189 37861 ft 459 kts 268°
2026-05-05 02:59 39.02426 -118.01347 37862 ft 459 kts 268°
2026-05-05 03:00 39.02396 -118.09548 37855 ft 459 kts 269°
2026-05-05 03:00 39.02359 -118.17773 37862 ft 460 kts 268°
2026-05-05 03:01 39.02317 -118.26013 37844 ft 461 kts 269°
2026-05-05 03:01 39.02269 -118.34280 37833 ft 463 kts 269°
2026-05-05 03:02 39.02215 -118.42579 37833 ft 466 kts 269°
2026-05-05 03:02 39.02154 -118.50928 37828 ft 467 kts 269°
2026-05-05 03:03 39.02088 -118.59298 37822 ft 469 kts 269°
2026-05-05 03:03 39.02015 -118.67695 37824 ft 470 kts 269°
2026-05-05 03:04 39.01936 -118.76123 37821 ft 472 kts 269°
2026-05-05 03:04 39.01850 -118.84563 37827 ft 474 kts 269°
2026-05-05 03:05 39.01759 -118.93036 37827 ft 475 kts 269°
2026-05-05 03:05 39.01660 -119.01529 37833 ft 475 kts 269°
2026-05-05 03:06 39.01556 -119.10033 37833 ft 476 kts 269°
2026-05-05 03:06 39.01446 -119.18533 37847 ft 475 kts 269°
2026-05-05 03:07 39.01329 -119.27036 37862 ft 476 kts 269°
2026-05-05 03:07 39.01206 -119.35537 37880 ft 476 kts 269°
2026-05-05 03:08 39.01077 -119.44051 37899 ft 476 kts 269°
2026-05-05 03:08 39.00942 -119.52555 37869 ft 476 kts 269°
2026-05-05 03:08 39.00873 -119.56770 37293 ft 478 kts 270°
2026-05-05 03:09 39.00800 -119.61116 36495 ft 479 kts 270°
2026-05-05 03:09 39.00728 -119.65323 35792 ft 478 kts 270°
2026-05-05 03:09 39.00652 -119.69611 34953 ft 480 kts 271°
2026-05-05 03:09 39.00576 -119.73917 34088 ft 484 kts 271°
2026-05-05 03:10 39.00497 -119.78257 33031 ft 488 kts 271°
2026-05-05 03:10 39.00416 -119.82636 32059 ft 491 kts 271°
2026-05-05 03:10 39.00333 -119.87042 31080 ft 494 kts 271°
2026-05-05 03:10 39.00248 -119.91458 30378 ft 493 kts 271°
2026-05-05 03:11 39.00159 -119.95829 30223 ft 482 kts 271°
2026-05-05 03:11 39.00070 -120.00055 30033 ft 467 kts 271°
2026-05-05 03:11 38.99983 -120.04200 29492 ft 460 kts 271°
2026-05-05 03:11 38.99899 -120.08275 28991 ft 453 kts 271°
2026-05-05 03:12 38.99815 -120.12304 28249 ft 451 kts 272°
2026-05-05 03:12 38.99731 -120.16349 27422 ft 453 kts 271°
2026-05-05 03:12 38.99645 -120.20381 26646 ft 448 kts 271°
2026-05-05 03:12 38.99555 -120.24350 25854 ft 440 kts 271°
2026-05-05 03:13 38.99570 -120.28236 25039 ft 430 kts 281°
2026-05-05 03:13 39.00202 -120.31936 24297 ft 419 kts 289°
2026-05-05 03:13 39.00936 -120.35552 23528 ft 418 kts 289°
2026-05-05 03:13 39.01672 -120.39176 22629 ft 419 kts 289°
2026-05-05 03:14 39.02394 -120.42793 21794 ft 418 kts 288°
2026-05-05 03:14 39.03103 -120.46420 20953 ft 417 kts 288°
2026-05-05 03:14 39.03790 -120.49981 20143 ft 415 kts 287°
2026-05-05 03:14 39.04479 -120.53576 19350 ft 413 kts 288°
2026-05-05 03:15 39.05164 -120.57155 18583 ft 411 kts 288°
2026-05-05 03:15 39.05844 -120.60719 17548 ft 411 kts 288°
2026-05-05 03:15 39.06525 -120.64306 16492 ft 413 kts 288°
2026-05-05 03:15 39.07078 -120.67876 16075 ft 402 kts 277°
2026-05-05 03:16 39.06860 -120.71394 15961 ft 392 kts 258°
2026-05-05 03:16 39.06068 -120.74714 15881 ft 384 kts 253°
2026-05-05 03:16 39.05207 -120.77920 15507 ft 377 kts 253°
2026-05-05 03:16 39.04341 -120.81105 14908 ft 376 kts 253°
2026-05-05 03:17 39.03486 -120.84278 14346 ft 376 kts 253°
2026-05-05 03:17 39.02645 -120.87435 13889 ft 371 kts 254°
2026-05-05 03:17 39.01821 -120.90557 13417 ft 366 kts 254°
2026-05-05 03:17 39.01015 -120.93637 12960 ft 359 kts 254°
2026-05-05 03:18 39.00227 -120.96647 12541 ft 353 kts 253°
2026-05-05 03:18 38.99463 -120.99567 12000 ft 340 kts 253°
2026-05-05 03:18 38.98710 -121.02443 11222 ft 337 kts 253°
2026-05-05 03:18 38.97968 -121.05271 10470 ft 332 kts 253°
2026-05-05 03:19 38.96531 -121.10726 9532 ft 304 kts 253°
2026-05-05 03:19 38.95868 -121.13226 9302 ft 287 kts 253°
2026-05-05 03:19 38.95231 -121.15615 9065 ft 281 kts 253°
2026-05-05 03:20 38.94607 -121.17985 8655 ft 281 kts 253°
2026-05-05 03:20 38.93982 -121.20365 8239 ft 281 kts 252°
2026-05-05 03:20 38.93358 -121.22735 7880 ft 279 kts 252°
2026-05-05 03:20 38.92745 -121.25056 7551 ft 277 kts 252°
2026-05-05 03:21 38.92128 -121.27387 7219 ft 275 kts 251°
2026-05-05 03:21 38.91516 -121.29696 6895 ft 272 kts 251°
2026-05-05 03:21 38.90910 -121.31980 6552 ft 270 kts 251°
2026-05-05 03:21 38.90305 -121.34257 6147 ft 268 kts 251°
2026-05-05 03:22 38.89707 -121.36503 5764 ft 267 kts 251°
2026-05-05 03:22 38.89109 -121.38749 5389 ft 265 kts 251°
2026-05-05 03:22 38.88753 -121.41058 5008 ft 264 kts 264°
2026-05-05 03:22 38.88623 -121.43404 4636 ft 262 kts 266°
2026-05-05 03:23 38.88547 -121.45727 4404 ft 258 kts 267°
2026-05-05 03:23 38.88488 -121.48036 4146 ft 259 kts 267°
2026-05-05 03:23 38.88421 -121.50356 4066 ft 262 kts 267°
2026-05-05 03:23 38.88346 -121.52697 4034 ft 262 kts 266°
2026-05-05 03:24 38.88250 -121.55021 4027 ft 260 kts 265°
2026-05-05 03:24 38.88146 -121.57291 4018 ft 259 kts 265°
2026-05-05 03:24 38.88032 -121.59622 4020 ft 259 kts 265°
2026-05-05 03:24 38.87900 -121.61940 4020 ft 261 kts 264°
2026-05-05 03:25 38.87792 -121.64237 4017 ft 262 kts 270°
2026-05-05 03:25 38.88339 -121.66460 3937 ft 269 kts 303°
2026-05-05 03:25 38.89754 -121.67937 3746 ft 274 kts 337°
2026-05-05 03:25 38.91627 -121.68189 3572 ft 274 kts 12°
2026-05-05 03:26 38.93286 -121.67083 3384 ft 270 kts 46°
2026-05-05 03:26 38.94175 -121.65048 3202 ft 259 kts 77°
2026-05-05 03:26 38.94519 -121.62832 3073 ft 245 kts 82°
2026-05-05 03:26 38.94783 -121.60767 3026 ft 226 kts 82°
2026-05-05 03:27 38.95029 -121.58833 3015 ft 213 kts 83°
2026-05-05 03:27 38.95260 -121.56969 3037 ft 215 kts 83°
2026-05-05 03:27 38.95485 -121.55094 3055 ft 224 kts 83°
2026-05-05 03:27 38.95727 -121.53084 3058 ft 228 kts 83°
2026-05-05 03:28 38.95959 -121.51169 3032 ft 226 kts 83°
2026-05-05 03:28 38.96200 -121.49192 3016 ft 222 kts 83°
2026-05-05 03:28 38.96240 -121.47251 3004 ft 215 kts 110°
2026-05-05 03:28 38.95388 -121.45802 3024 ft 209 kts 152°
2026-05-05 03:29 38.94019 -121.45494 3037 ft 208 kts 194°
2026-05-05 03:29 38.92737 -121.46345 3048 ft 210 kts 212°
2026-05-05 03:29 38.91509 -121.47398 3028 ft 214 kts 213°
2026-05-05 03:29 38.90258 -121.48454 3028 ft 216 kts 213°
2026-05-05 03:30 38.89000 -121.49512 3036 ft 216 kts 213°
2026-05-05 03:30 38.87755 -121.50558 3038 ft 211 kts 213°
2026-05-05 03:30 38.86539 -121.51581 3036 ft 208 kts 213°
2026-05-05 03:30 38.85318 -121.52608 2977 ft 213 kts 213°
2026-05-05 03:31 38.84067 -121.53648 2731 ft 215 kts 213°
2026-05-05 03:31 38.82816 -121.54675 2473 ft 212 kts 213°
2026-05-05 03:31 38.81579 -121.55678 2211 ft 209 kts 213°
2026-05-05 03:31 38.80346 -121.56672 2077 ft 211 kts 213°
2026-05-05 03:32 38.79114 -121.57593 2012 ft 197 kts 201°
2026-05-05 03:32 38.77813 -121.57805 1801 ft 188 kts 182°
2026-05-05 03:32 38.76515 -121.57835 1465 ft 186 kts 184°
2026-05-05 03:32 38.75239 -121.57883 1191 ft 181 kts 184°
2026-05-05 03:33 38.73996 -121.57970 891 ft 179 kts 185°
2026-05-05 03:33 38.72746 -121.57896 804 ft 177 kts 178°
2026-05-05 03:33 38.71495 -121.57909 948 ft 184 kts 180°
2026-05-05 03:33 38.70272 -121.57598 1492 ft 185 kts 156°
2026-05-05 03:34 38.69353 -121.56275 2050 ft 217 kts 112°
2026-05-05 03:34 38.69253 -121.54312 2029 ft 227 kts 72°
2026-05-05 03:34 38.70160 -121.52723 2028 ft 222 kts 31°
2026-05-05 03:34 38.71530 -121.51851 2030 ft 223 kts 25°
2026-05-05 03:35 38.72914 -121.51032 2016 ft 221 kts 23°
2026-05-05 03:35 38.74321 -121.50244 2025 ft 220 kts 23°
2026-05-05 03:35 38.75723 -121.49463 2018 ft 220 kts 23°
2026-05-05 03:35 38.77127 -121.48683 2018 ft 220 kts 23°
2026-05-05 03:36 38.78529 -121.47906 2026 ft 220 kts 23°
2026-05-05 03:36 38.79934 -121.47128 2025 ft 220 kts 23°
2026-05-05 03:36 38.81349 -121.46377 2020 ft 220 kts 15°
2026-05-05 03:36 38.82859 -121.46346 2037 ft 218 kts 352°
2026-05-05 03:37 38.84386 -121.46564 2014 ft 222 kts 353°
2026-05-05 03:37 38.85933 -121.46773 2011 ft 226 kts 353°
2026-05-05 03:37 38.87499 -121.46984 2007 ft 225 kts 353°
2026-05-05 03:37 38.89040 -121.47190 2016 ft 221 kts 353°
2026-05-05 03:38 38.90556 -121.47391 2024 ft 218 kts 353°
2026-05-05 03:38 38.92070 -121.47595 2034 ft 220 kts 354°
2026-05-05 03:38 38.93596 -121.47824 2036 ft 222 kts 353°
2026-05-05 03:38 38.95130 -121.48117 2026 ft 224 kts 342°
2026-05-05 03:39 38.96320 -121.49265 2019 ft 210 kts 298°
2026-05-05 03:39 38.96544 -121.50975 2006 ft 190 kts 251°
2026-05-05 03:39 38.95790 -121.52260 2046 ft 180 kts 214°
2026-05-05 03:39 38.94773 -121.53158 2030 ft 180 kts 213°
2026-05-05 03:40 38.93736 -121.54033 2020 ft 176 kts 213°
2026-05-05 03:40 38.92713 -121.54886 2009 ft 175 kts 213°
2026-05-05 03:40 38.91699 -121.55726 2010 ft 174 kts 213°
2026-05-05 03:40 38.90672 -121.56576 2024 ft 178 kts 213°
2026-05-05 03:41 38.89624 -121.57440 2031 ft 180 kts 213°
2026-05-05 03:41 38.88465 -121.57995 2006 ft 181 kts 180°
2026-05-05 03:41 38.87200 -121.57932 2030 ft 184 kts 180°
2026-05-05 03:41 38.86336 -121.57898 2032 ft 183 kts 180°
2026-05-05 03:42 38.85063 -121.57845 2015 ft 182 kts 180°
2026-05-05 03:42 38.83802 -121.57790 2010 ft 180 kts 181°
2026-05-05 03:42 38.82572 -121.57794 2015 ft 178 kts 183°
2026-05-05 03:42 38.81321 -121.57816 2017 ft 177 kts 183°
2026-05-05 03:43 38.80099 -121.57840 2049 ft 179 kts 183°
2026-05-05 03:43 38.78839 -121.57865 1959 ft 184 kts 183°
2026-05-05 03:43 38.77576 -121.57887 1723 ft 178 kts 182°
2026-05-05 03:43 38.76368 -121.57904 1418 ft 169 kts 183°
2026-05-05 03:44 38.75228 -121.57926 1146 ft 158 kts 183°
2026-05-05 03:44 38.74195 -121.57926 892 ft 141 kts 181°
2026-05-05 03:44 38.73251 -121.57954 588 ft 132 kts 180°
2026-05-05 03:44 38.72343 -121.57996 362 ft 135 kts 178°
2026-05-05 03:45 38.71407 -121.58001 192 ft 134 kts 177°
2026-05-05 03:45 38.70472 -121.58012 30 ft 133 kts 178°
2026-05-05 03:45 38.69674 -121.58025 23 ft 91 kts 181°
2026-05-05 03:45 38.69183 -121.58032 23 ft 54 kts 180°
2026-05-05 03:46 38.68825 -121.58037 24 ft 48 kts 181°
2026-05-05 03:46 38.68645 -121.58040 22 ft 19 kts 181°
2026-05-05 03:46 38.68513 -121.58043 24 ft 19 kts 181°
2026-05-05 03:46 38.68390 -121.58064 22 ft 18 kts 218°
2026-05-05 03:47 38.68367 -121.58208 22 ft 17 kts 271°
2026-05-05 03:47 38.68437 -121.58304 22 ft 16 kts 355°
2026-05-05 03:47 38.68548 -121.58304 22 ft 16 kts 360°
2026-05-05 03:47 38.68654 -121.58301 22 ft 15 kts
2026-05-05 03:48 38.68673 -121.58301 22 ft 15 kts
2026-05-05 03:48 38.68782 -121.58299 22 ft 18 kts
2026-05-05 03:48 38.68943 -121.58296 22 ft 26 kts 360°
2026-05-05 03:49 38.69121 -121.58293 22 ft 25 kts
2026-05-05 03:49 38.69286 -121.58291 23 ft 23 kts
2026-05-05 03:49 38.69442 -121.58288 23 ft 22 kts
2026-05-05 03:49 38.69589 -121.58293 23 ft 18 kts 333°
2026-05-05 03:50 38.69615 -121.58436 22 ft 17 kts 270°
2026-05-05 03:50 38.69617 -121.58605 22 ft 21 kts 271°
2026-05-05 03:50 38.69619 -121.58787 22 ft 20 kts 271°
2026-05-05 03:50 38.69642 -121.58913 24 ft 12 kts 347°
2026-05-05 03:51 38.69692 -121.58975 22 ft 11 kts 276°
2026-05-05 03:51 38.69695 -121.59098 22 ft 18 kts 270°
2026-05-05 03:51 38.69696 -121.59229 22 ft 9 kts 272°
2026-05-05 03:51 38.69670 -121.59286 22 ft 8 kts 199°
2026-05-05 03:52 38.69627 -121.59304 22 ft 3 kts 198°
2026-05-05 03:52 38.69626 -121.59305 24 ft 0 kts 198°